This demonstration page uses our WeatherBlox Daily Observations layout. Learn more.

Left ArrowRight Arrow

Hourly Observations for December 27, 2018

Temp ( °F °C ) Dew Point ( °F °C ) Humidity (%) Winds ( mph kmh ) Pressure ( in mb ) Visibility ( mi km ) Precip ( " mm )
12:24 am 00:24 Cloudy with Rain 39 3.9 38 3.3 96 96 N 22 35 29.68 1005 3 5 0.07 1.78
12:42 am 00:42 Cloudy with Rain 39 4 37 3 93 93 N 22 35 29.68 1005 4 6 0.00 0.00
12:53 am 00:53 Cloudy with Light Rain 38 3.3 37 2.8 97 97 N 24 39 29.64 1004 4 6 0.10 2.54
1:43 am 01:43 Windy with Snow Likely 37 3 36 2 93 93 N 25 41 29.65 1004 3 4 0.00 0.00
1:53 am 01:53 Windy with Snow Likely 37 2.8 36 2.2 96 96 N 28 44 29.61 1003 3 4 0.06 1.52
2:53 am 02:53 Windy with Snow Likely 35 1.7 33 0.6 93 93 N 29 46 29.55 1001 3 4 0.01 0.25
3:10 am 03:10 Cloudy with Light Rain 35 1.7 33 0.6 93 93 N 32 52 29.62 1003 3 5 0.00 0.03
3:37 am 03:37 Cloudy with Light Wintry Mix 34 1.1 32 0 92 92 N 30 48 29.65 1004 3 4 0.00 0.03
3:53 am 03:53 Windy with Snow Likely 34 1.1 32 0 92 92 N 26 43 29.55 1001 2 3 0.00 0.03
4:01 am 04:01 Windy with Snow Likely 34 1.1 32 0 92 92 N 28 44 29.62 1003 2 2 0.00 0.03
4:53 am 04:53 Windy with Snow Likely 32 0 30 -1.1 92 92 N 32 52 29.54 1000 2 2 0.01 0.25
5:26 am 05:26 Windy with Snow Likely 31 -0.6 29 -1.7 92 92 N 32 52 29.59 1002 3 4 0.01 0.25
5:40 am 05:40 Windy with Snow Likely 30 -1 27 -3 86 86 N 29 46 29.59 1002 1 2 0.00 0.00
5:50 am 05:50 Windy with Snow Likely 28 -2 27 -3 93 93 N 31 50 29.59 1002 1 2 0.02 0.51
5:53 am 05:53 Windy with Snow Likely 28 -2.2 26 -3.3 92 92 N 31 50 29.55 1001 1 2 0.02 0.51
6:51 am 06:51 Windy with Snow Likely 27 -3 23 -5 86 86 N 29 46 29.65 1004 1 2 0.00 0.03
6:53 am 06:53 Windy with Snow Likely 26 -3.3 23 -5 88 88 N 32 52 29.57 1001 1 2 0.00 0.03
7:00 am 07:00 Windy with Snow Likely 27 -3 21 -6 80 80 N 31 50 29.65 1004 1 2 0.00 0.00
7:29 am 07:29 Windy with Snow Likely 25 -3.9 21 -6.1 85 85 N 31 50 29.65 1004 2 3 0.00 0.03
7:38 am 07:38 Windy with Snow Likely 24 -4.4 21 -6.1 88 88 N 29 46 29.65 1004 2 2 0.00 0.03
7:53 am 07:53 Windy with Snow Likely 24 -4.4 20 -6.7 84 84 N 36 57 29.59 1002 2 2 0.00 0.03
8:10 am 08:10 Windy with Snow Likely 23 -5 19 -7 86 86 N 32 52 29.65 1004 1 1 0.00 0.00
8:12 am 08:12 Windy with Snow Likely 23 -5 19 -7 86 86 N 31 50 29.65 1004 1 1 0.00 0.00
8:53 am 08:53 Windy with Snow Likely 22 -5.6 19 -7.2 89 89 N 32 52 29.57 1001 1 1 0.01 0.25
9:12 am 09:12 Windy with Snow Likely 21 -6 18 -8 86 86 N 32 52 29.68 1005 1 1 0.00 0.00
9:43 am 09:43 Cloudy with Snow 21 -6.1 18 -7.8 88 88 N 30 48 29.68 1005 0 0 0.00 0.03
9:53 am 09:53 Mostly Cloudy with Light Snow 21 -6.1 18 -7.8 88 88 N 28 44 29.59 1002 0 0 0.00 0.03
10:53 am 10:53 Windy with Snow Likely 20 -6.7 17 -8.3 89 89 NNW 25 41 29.60 1002 1 1 0.00 0.03
11:53 am 11:53 Mostly Cloudy with Light Snow 19 -7.2 15 -9.4 84 84 NNW 35 56 29.59 1002 0 0 0.00 0.03
12:24 pm 12:24 Mostly Cloudy with Light Snow 19 -7 16 -9 86 86 NNW 25 41 29.68 1005 1 1 0.00 0.00
12:39 pm 12:39 Mostly Cloudy with Snow 19 -7.2 15 -9.4 84 84 NW 29 46 29.68 1005 0 0 0.00 0.03
12:53 pm 12:53 Mostly Cloudy with Light Snow 18 -7.8 14 -10 84 84 NNW 29 46 29.60 1002 0 0 0.00 0.03
1:53 pm 13:53 Mostly Cloudy with Snow 19 -7.2 15 -9.4 84 84 NNW 28 44 29.63 1003 0 0 0.00 0.03
2:53 pm 14:53 Mostly Cloudy with Snow 19 -7.2 16 -8.9 88 88 NW 24 39 29.66 1005 0 0 0.00 0.03
3:53 pm 15:53 Mostly Cloudy with Freezing Fog 19 -7.2 15 -9.4 84 84 NNW 33 54 29.68 1005 0 0 0.00 0.03
4:04 pm 16:04 Cloudy with Freezing Fog 19 -7 16 -9 86 86 NNW 29 46 29.77 1008 0 0 0.00 0.00
4:41 pm 16:41 Cloudy with Blowing Snow 19 -7.2 14 -10 81 81 NNW 26 43 29.80 1009 2 2 0.00 0.00
4:53 pm 16:53 Windy with Snow Likely 19 -7.2 14 -10 81 81 NNW 25 41 29.74 1007 2 3 0.00 0.03
5:01 pm 17:01 Windy with Snow Likely 19 -7.2 14 -10 81 81 NNW 26 43 29.83 1010 2 3 0.00 0.03
5:12 pm 17:12 Windy with Snow Likely 19 -7 14 -10 79 79 NNW 31 50 29.83 1010 1 1 0.00 0.00
5:24 pm 17:24 Windy with Snow Likely 19 -7 14 -10 79 79 NW 26 43 29.83 1010 2 3 0.00 0.00
5:31 pm 17:31 Windy with Snow Likely 19 -7.2 14 -10 81 81 NW 29 46 29.83 1010 1 2 0.00 0.03
5:41 pm 17:41 Windy with Snow Likely 19 -7 14 -10 79 79 NW 24 39 29.85 1011 3 5 0.00 0.00
5:53 pm 17:53 Windy with Snow Likely 19 -7.2 14 -10 81 81 NW 29 46 29.80 1009 3 4 0.00 0.03
6:12 pm 18:12 Windy with Snow Likely 19 -7 14 -10 79 79 NW 25 41 29.85 1011 3 5 0.00 0.00
6:27 pm 18:27 Windy with Snow Likely 19 -7.2 14 -10 81 81 NNW 26 43 29.85 1011 2 3 0.00 0.03
6:40 pm 18:40 Windy with Snow Likely 19 -7 14 -10 79 79 NNW 30 48 29.85 1011 1 1 0.00 0.00
6:53 pm 18:53 Windy with Snow Likely 19 -7.2 13 -10.6 77 77 NNW 24 39 29.81 1009 3 4 0.00 0.03
7:16 pm 19:16 Windy with Snow Likely 19 -7 12 -11 73 73 NNW 24 39 29.88 1012 4 6 0.00 0.00
7:53 pm 19:53 Windy with Snow Likely 19 -7.2 13 -10.6 77 77 NNW 22 35 29.86 1011 4 6 0.00 0.03
8:10 pm 20:10 Windy with Snow Likely 19 -7.2 13 -10.6 77 77 NNW 29 46 29.94 1014 6 10 0.00 0.03
8:53 pm 20:53 Cloudy 19 -7.2 13 -10.6 77 77 NW 22 35 29.90 1013 10 16 0.00 0.03
9:53 pm 21:53 Cloudy 19 -7.2 12 -11.1 74 74 NNW 24 39 29.92 1013 10 16 0.00 0.00
10:53 pm 22:53 Cloudy with Blowing Snow 19 -7.2 13 -10.6 77 77 NNW 30 48 29.92 1013 3 4 0.00 0.00
11:09 pm 23:09 Cloudy 20 -6.7 13 -10.6 74 74 NNW 22 35 30.00 1016 7 11 0.00 0.00
11:53 pm 23:53 Windy with Snow Likely 20 -6.7 14 -10 78 78 NNW 31 50 29.96 1014 5 8 0.00 0.03

Powered by AerisWeather